Theta_e
318 319 319 320 321 321 322 322 323 323 323 323 323 323 324 323 323 323 324 324 324 325 325 324 324 325 326 324 325 327 321 313 309 307 306 309 316 322 323 325 327 324 319 313 312 308 305 304 303 305 304 305 305 302 304 305 306 305 298 297 295 296 294 296 295 295 297 296 298 299 299 298 296 299 301 303 303 305 304 302 302 303 301 302 302 304 305 306
318 319 319 320 321 321 321 322 323 322 323 323 323 324 324 323 324 323 324 324 325 326 325 325 325 325 324 323 322 324 318 313 308 307 305 312 320 323 323 323 327 322 317 311 307 305 304 303 303 303 303 301 304 303 304 302 304 301 299 297 294 296 296 299 297 298 296 296 297 299 300 298 297 298 300 298 299 299 298 299 300 299 299 300 301 301 301 302
318 319 319 320 320 321 321 322 322 322 322 323 324 324 324 323 323 323 324 324 325 325 325 325 325 324 324 320 323 320 312 309 307 304 309 320 321 321 321 322 324 320 312 308 308 307 305 304 304 303 302 301 302 302 303 302 303 302 299 296 297 298 298 298 299 297 298 298 297 297 298 298 298 298 302 298 298 297 294 294 296 295 294 296 298 299 299 299
318 318 319 319 320 320 321 322 322 322 323 324 324 323 323 323 323 323 324 324 324 325 325 325 324 324 323 322 321 321 313 308 301 305 310 321 320 319 319 321 321 318 315 311 309 308 307 306 305 304 301 302 301 303 302 303 303 302 300 296 297 298 297 297 299 298 298 299 297 297 299 298 298 300 299 298 297 294 295 296 294 293 294 295 296 297 298 297
317 318 318 319 320 320 321 321 322 322 323 323 323 323 322 323 323 324 324 324 324 325 325 325 326 325 323 322 315 312 309 302 300 308 310 317 318 318 317 320 318 316 311 309 307 307 307 305 304 304 305 300 302 302 300 303 302 302 298 298 298 299 297 297 298 298 297 298 298 298 296 295 301 299 297 297 293 291 294 295 296 295 295 295 295 295 296 295
317 318 318 319 319 319 320 321 322 322 323 323 323 324 324 323 324 324 325 325 325 325 324 325 325 324 322 320 317 314 307 293 305 306 317 315 319 319 316 318 318 315 313 308 306 306 305 304 303 302 302 301 300 300 300 301 302 297 298 298 298 297 296 297 298 296 297 297 297 297 297 300 298 296 297 296 294 295 297 297 296 296 296 296 296 295 294 294
317 317 318 319 319 319 320 321 321 322 321 322 323 323 323 323 324 324 325 325 326 325 325 325 324 322 321 317 316 311 304 302 306 308 315 316 315 318 314 316 320 320 314 309 306 305 304 303 303 302 301 300 300 299 299 300 303 301 296 298 295 297 295 297 297 296 297 296 296 298 299 297 297 292 296 294 296 297 297 297 297 297 296 296 294 294 293 293
317 318 318 318 319 319 319 320 320 321 322 322 322 322 323 323 324 324 324 324 325 325 325 324 323 320 319 319 314 304 302 300 306 310 313 315 311 310 312 314 313 313 310 307 307 304 305 303 301 304 301 300 301 300 300 299 300 299 297 298 296 297 296 297 297 297 297 297 299 299 297 296 296 295 295 293 295 296 296 296 296 295 295 294 293 293 293 292
317 318 318 318 318 319 319 320 321 321 321 321 322 322 324 323 323 323 323 324 324 324 324 323 320 320 317 315 309 303 298 305 309 310 310 308 308 309 311 309 311 310 308 308 308 306 306 303 303 302 300 300 302 300 300 300 297 300 298 299 297 295 296 297 298 297 296 297 299 297 295 297 297 297 293 294 295 296 296 295 295 294 293 292 292 292 292 292
317 318 318 317 318 319 319 320 320 319 320 321 323 323 324 323 322 322 323 324 325 325 325 323 321 314 320 313 311 299 302 309 309 309 309 308 309 310 309 309 309 310 307 306 306 305 303 302 303 304 302 299 300 297 300 299 295 301 300 299 297 295 296 297 295 296 297 296 297 296 295 295 298 297 289 295 296 296 295 294 294 293 292 292 292 292 292 291
318 318 317 317 318 319 320 320 319 319 319 321 323 323 324 323 322 323 323 323 325 325 323 321 319 315 309 307 301 296 307 308 309 309 309 309 308 307 306 308 310 309 306 305 305 306 305 305 305 305 306 298 300 297 300 298 301 298 299 298 297 296 296 296 296 295 298 294 297 297 295 297 296 295 291 294 296 296 294 293 293 293 292 292 292 291 292 291
318 317 317 317 319 319 319 319 319 319 320 322 322 323 322 321 321 322 323 324 324 323 322 321 316 315 310 304 299 299 308 308 310 308 310 309 306 306 307 308 310 309 307 302 303 305 306 306 307 305 299 302 296 300 297 300 301 298 298 296 296 296 295 295 294 295 296 293 297 297 295 292 292 290 293 295 296 295 294 293 292 292 292 292 291 291 291 291
317 317 317 317 319 319 319 319 319 319 319 321 321 322 321 321 321 321 322 323 323 322 322 318 317 315 315 300 300 306 308 310 309 308 308 311 308 309 309 310 310 310 308 305 303 306 307 307 306 303 305 303 301 295 297 302 299 298 298 297 295 294 293 295 296 295 296 295 297 296 287 289 289 291 293 296 296 295 293 292 292 291 291 291 291 291 291 291
317 317 316 318 319 319 318 319 319 319 319 320 321 320 320 321 320 321 323 321 321 322 316 317 318 316 307 300 304 306 309 310 309 306 306 310 309 308 310 309 310 310 310 307 306 308 306 308 307 304 307 303 298 301 299 299 300 295 297 297 289 290 289 294 294 294 293 296 296 298 287 289 290 291 294 295 295 293 291 291 291 291 291 291 290 290 290 291
316 316 317 318 318 318 318 318 318 319 320 320 320 320 320 320 320 321 321 322 320 321 321 317 320 314 304 301 307 308 315 311 305 304 307 307 307 307 307 308 306 306 306 306 305 305 306 308 307 302 299 303 303 301 297 297 297 295 293 288 290 288 289 294 295 294 291 294 298 296 288 288 289 290 293 294 294 293 290 290 290 290 290 290 290 290 290 290
316 316 318 318 318 318 318 318 318 318 320 320 319 320 320 320 319 317 318 320 319 318 321 326 315 309 301 297 302 313 307 302 302 306 307 307 306 305 306 304 305 305 305 303 306 305 306 304 302 303 302 304 300 296 294 292 292 293 289 286 286 288 288 291 294 296 295 295 297 295 290 290 288 290 292 293 292 292 290 289 289 289 289 289 289 290 290 290
317 317 317 318 318 317 317 318 318 318 318 319 319 320 320 317 320 318 317 316 318 322 312 307 310 312 297 303 309 302 300 303 306 305 306 308 306 306 306 305 304 305 306 305 305 305 303 301 303 302 302 296 297 297 292 286 286 287 290 286 288 285 288 286 293 297 295 295 292 294 290 287 288 290 291 292 292 291 289 288 289 289 289 289 289 289 289 289
317 317 318 317 318 317 317 318 318 318 318 318 318 320 323 319 318 320 319 321 319 317 314 316 309 307 298 303 295 298 304 302 303 303 306 307 307 306 304 302 304 304 304 302 302 301 303 299 301 294 295 295 294 292 286 281 284 285 285 285 285 288 288 287 287 294 292 294 292 291 289 287 288 289 289 290 291 290 288 288 288 288 288 288 289 288 288 288
317 317 317 317 317 317 317 317 318 318 317 318 318 318 319 318 329 312 310 310 311 305 301 300 303 293 290 296 301 302 302 304 304 304 303 305 305 306 305 305 304 302 299 298 298 300 302 299 299 292 288 290 289 289 288 288 290 288 288 287 287 285 286 287 290 295 292 289 290 290 288 287 287 288 289 289 290 289 288 288 288 288 288 288 288 288 288 288
317 316 317 317 317 316 316 317 318 317 314 319 325 323 318 311 306 303 307 307 303 301 301 303 304 303 300 299 298 302 306 304 300 302 303 305 304 303 302 304 304 301 299 295 299 298 302 291 288 287 287 290 292 291 291 291 292 292 291 289 286 286 287 290 290 293 294 289 289 290 289 287 287 287 288 288 289 288 287 287 287 287 287 287 287 287 288 288
317 317 316 316 316 316 317 318 318 316 313 324 322 317 308 307 302 295 300 302 304 305 302 302 302 299 297 300 300 300 297 299 302 300 301 306 306 302 301 303 300 296 297 298 298 301 299 289 287 290 290 290 291 292 292 293 293 291 289 286 285 287 284 288 289 293 295 288 286 291 288 287 287 287 287 288 288 286 286 286 286 286 287 287 287 287 287 287
317 316 316 315 316 317 317 318 317 316 310 326 318 308 307 308 311 315 309 296 302 304 304 303 304 300 302 301 302 300 301 297 299 299 302 304 303 299 301 300 297 294 298 301 298 294 290 286 290 291 291 291 293 293 293 290 291 292 286 285 284 284 287 290 291 293 291 290 288 291 288 288 287 286 287 287 286 286 287 287 286 286 286 286 287 287 287 287
316 316 316 316 316 317 318 317 317 316 324 319 314 311 309 311 312 314 315 302 298 302 304 301 299 298 299 302 300 303 296 293 294 297 298 301 302 300 302 298 296 296 296 296 291 290 287 289 291 294 291 291 293 293 293 293 291 287 285 283 281 285 283 281 288 291 292 289 287 289 286 288 286 287 287 287 287 286 287 287 287 288 286 286 286 287 286 286
315 315 316 316 317 317 317 317 315 319 317 316 313 311 311 312 313 313 313 299 296 300 303 300 302 298 298 296 301 299 296 295 296 293 301 298 298 300 299 296 295 294 292 295 293 290 287 291 294 293 292 291 290 292 290 288 287 290 287 283 282 283 284 284 285 289 290 290 290 287 286 287 285 284 284 286 287 286 287 287 287 287 288 288 288 288 287 286
315 315 315 317 316 316 316 316 315 312 313 315 311 313 311 311 312 312 311 297 300 298 302 307 302 299 297 302 303 301 298 298 296 297 300 298 297 301 295 297 299 292 294 293 297 292 291 293 293 293 290 291 291 288 289 288 286 287 286 285 285 285 285 286 287 286 285 284 287 286 279 280 286 285 285 285 285 285 286 286 286 286 287 287 286 286 287 287
314 315 316 316 316 315 315 312 315 316 318 310 313 311 311 311 312 312 306 296 288 294 303 295 302 295 304 298 300 301 300 294 297 298 302 298 299 298 297 294 297 292 295 293 291 290 291 293 293 291 290 291 290 289 289 289 285 285 284 288 287 286 286 286 286 284 280 279 284 287 279 275 285 284 286 285 285 284 285 285 286 286 286 287 286 287 287 286
314 315 316 316 316 315 318 310 314 317 314 314 314 313 312 313 312 316 304 291 287 295 294 301 301 300 306 299 300 302 289 292 300 300 299 301 298 302 298 293 298 296 295 293 293 286 293 294 292 292 291 289 287 285 289 288 285 284 289 288 288 287 285 285 284 284 282 287 288 287 285 277 277 284 287 285 284 284 284 285 285 286 286 286 286 287 287 287
315 316 316 315 315 314 316 315 318 313 310 313 311 311 309 311 313 313 298 282 280 299 291 297 297 306 301 301 301 294 292 297 294 295 301 301 300 301 297 292 291 291 293 294 283 289 290 291 290 289 290 287 285 287 289 290 285 286 289 290 288 287 287 286 284 283 284 283 281 283 285 277 277 283 285 285 282 283 283 284 285 286 286 286 286 286 286 286
315 315 314 316 315 308 322 317 314 312 311 309 309 310 313 313 311 304 294 282 292 294 307 295 308 299 298 304 298 298 298 298 291 296 303 304 301 298 294 293 294 292 295 295 287 288 293 292 292 291 289 285 288 289 290 289 286 288 290 291 290 290 288 287 283 282 283 280 277 281 283 275 276 281 282 282 282 283 282 284 285 286 285 285 285 286 286 285
312 314 313 315 317 322 316 316 310 311 308 308 309 311 313 310 303 293 286 278 297 287 296 297 296 291 297 296 295 296 295 295 297 298 301 297 299 301 294 294 296 293 291 295 291 291 291 295 295 294 288 288 289 290 290 290 290 293 292 289 286 287 285 286 285 283 281 276 278 281 281 279 272 280 282 282 282 281 282 283 285 285 285 285 285 284 283 283
313 313 313 312 321 314 311 311 310 310 308 307 310 309 310 306 294 288 279 285 295 294 300 296 292 297 292 291 290 294 296 295 295 296 294 298 295 297 297 294 299 293 289 289 288 291 292 292 293 291 293 291 293 290 292 292 292 290 286 284 284 284 285 283 283 284 276 274 280 281 281 281 272 277 283 281 281 282 281 281 282 283 284 283 283 283 283 282
309 309 312 312 310 315 313 313 309 308 308 310 311 310 303 291 291 285 282 301 287 289 289 288 294 291 292 291 291 289 288 294 294 293 290 291 290 289 288 285 285 285 285 284 285 291 288 287 288 291 292 289 289 288 292 289 291 288 285 284 278 276 277 273 278 273 274 273 279 281 281 277 277 280 283 282 282 282 283 284 283 283 282 282 282 282 282 282
310 308 308 308 310 311 310 310 308 308 309 309 310 304 295 289 280 286 286 289 285 290 290 291 291 291 289 291 289 289 291 287 293 293 294 292 291 289 290 289 289 285 280 286 284 285 286 289 290 289 289 291 290 283 283 283 286 285 282 279 276 272 271 269 273 276 275 278 281 280 282 275 280 281 283 283 284 284 284 284 284 283 282 282 281 281 281 281
310 310 308 305 306 305 307 309 308 308 310 310 306 302 293 285 281 287 284 288 288 292 291 289 289 291 291 287 287 288 287 289 290 290 293 289 290 287 288 290 289 287 286 286 281 281 280 281 285 287 283 290 288 286 286 284 285 284 286 282 277 276 271 267 272 269 270 273 277 281 277 274 273 279 283 285 285 286 286 285 285 284 283 282 282 281 280 280
306 312 312 313 314 310 308 307 309 308 309 307 303 294 286 282 285 285 286 288 290 291 290 290 288 289 289 288 289 289 286 286 289 289 289 288 285 286 284 285 289 288 287 284 283 282 282 282 287 289 288 289 286 288 289 287 285 285 286 285 279 276 280 273 275 274 273 272 272 276 276 278 278 284 286 284 286 286 286 285 284 283 282 282 281 280 279 280
312 311 316 308 308 307 309 307 306 307 311 305 296 289 285 285 285 288 288 291 290 288 289 290 289 288 287 288 287 285 291 286 287 287 286 287 286 286 287 287 286 287 283 282 282 280 282 281 287 289 287 286 287 288 288 290 276 282 283 277 278 283 280 276 278 279 277 275 272 278 276 279 283 284 282 285 284 284 284 283 282 281 281 280 279 279 279 279
309 313 305 307 307 307 307 309 308 311 309 303 293 285 287 288 290 289 291 289 288 289 287 285 286 285 284 285 287 285 286 288 285 286 285 286 285 286 286 287 288 288 287 284 284 284 279 280 289 287 284 287 288 289 289 289 288 284 278 279 285 286 282 278 270 272 272 268 270 275 272 272 274 271 282 282 280 281 281 280 280 280 279 278 278 278 278 279
311 307 307 306 305 308 308 309 311 309 306 297 287 288 289 288 290 291 290 289 288 288 286 287 286 287 285 284 285 284 286 285 287 287 285 286 283 286 286 286 288 287 287 287 284 284 284 279 286 285 286 286 287 288 286 288 290 283 280 286 278 272 273 278 274 266 266 265 268 271 273 273 274 273 279 278 278 278 278 279 278 278 277 277 277 277 278 279
308 310 302 305 309 309 310 308 311 307 302 291 288 287 289 290 290 290 291 290 289 286 287 285 286 285 285 286 284 284 283 285 285 285 284 285 283 287 285 286 287 289 288 289 286 286 286 278 282 285 285 286 284 286 279 281 286 288 288 283 285 281 276 272 274 272 273 267 266 267 271 269 276 276 278 278 279 278 278 278 277 276 277 277 276 277 277 278
308 305 300 309 311 312 309 311 310 304 298 289 289 287 292 290 291 291 290 290 288 288 286 285 287 286 285 285 283 285 285 284 285 285 286 286 284 286 286 287 284 287 289 289 287 288 283 285 276 284 288 288 281 283 280 281 279 281 281 279 279 280 281 278 278 273 271 267 267 266 265 270 276 280 280 279 279 278 277 276 276 276 277 277 277 277 277 278
305 305 301 313 311 313 313 307 298 293 290 289 292 289 291 289 291 290 292 291 292 292 286 287 287 286 287 285 285 287 285 286 285 285 285 286 285 283 284 283 284 285 287 286 286 286 283 283 278 281 282 281 281 283 282 283 283 281 280 277 277 275 272 270 268 279 273 269 266 265 264 271 278 282 281 280 279 278 278 277 276 276 276 277 277 277 278 278
305 295 299 309 312 313 309 296 292 294 292 289 288 292 290 292 291 289 289 289 288 288 290 288 287 288 288 288 287 287 285 285 286 285 286 284 286 286 284 282 284 283 283 284 284 287 284 283 281 278 281 282 281 283 284 285 284 282 281 278 280 279 277 272 266 269 273 273 273 271 267 269 280 282 281 280 279 278 278 277 276 277 276 277 277 277 278 278
302 297 307 309 310 306 302 292 293 291 288 289 292 291 291 290 288 288 289 290 289 291 290 290 289 288 288 288 288 287 287 285 286 284 286 286 284 283 285 284 283 285 284 287 287 285 284 281 278 280 283 282 283 284 284 284 284 280 280 281 279 275 275 274 273 274 270 270 269 268 266 270 279 282 280 280 279 278 278 277 276 276 276 277 277 277 277 277
301 300 302 309 312 304 304 290 288 288 288 291 292 289 291 291 291 291 289 290 289 287 289 289 290 290 288 289 288 285 288 283 286 285 285 284 285 284 284 284 283 285 285 284 282 286 281 282 280 276 276 279 280 280 280 280 281 281 279 278 278 278 277 275 273 273 269 271 271 267 262 267 277 280 279 278 278 277 276 277 277 275 276 276 276 276 277 277
299 305 304 303 306 305 296 296 291 289 287 288 288 288 290 290 291 290 291 290 290 288 286 288 288 289 289 289 288 288 288 285 283 283 282 284 284 283 284 282 282 285 286 285 283 285 283 281 279 273 270 268 268 270 272 275 278 280 278 277 276 276 274 273 270 271 267 271 271 267 265 272 276 277 277 276 276 276 276 276 277 277 276 275 276 276 276 277
301 291 299 299 301 299 296 298 296 292 287 287 286 286 288 288 289 291 292 290 289 289 288 289 289 287 289 288 288 287 286 286 284 283 283 284 283 285 285 284 284 286 283 283 281 283 283 283 281 278 275 273 275 277 281 282 279 275 278 278 275 276 276 275 275 271 268 269 267 270 270 270 271 273 274 274 275 274 274 275 275 275 276 276 276 276 276 276
303 295 294 291 299 295 293 296 293 294 290 293 287 286 285 288 289 289 292 288 290 290 290 289 289 288 287 288 286 286 287 285 285 282 281 282 284 284 284 286 285 284 281 281 281 281 282 281 281 279 278 278 279 279 281 281 277 278 277 276 276 274 274 272 270 268 273 269 264 271 271 268 269 272 273 274 274 274 274 274 275 275 275 275 275 276 277 276
298 291 294 293 295 291 291 290 294 292 292 293 286 288 287 288 288 285 289 289 289 288 289 289 289 289 288 286 287 284 286 286 285 282 280 279 283 284 284 285 285 284 282 284 283 281 279 279 279 277 277 279 280 280 281 280 279 277 277 276 275 275 274 271 271 273 272 268 265 270 271 268 270 272 273 274 274 273 274 274 275 275 276 275 275 274 275 275
298 293 294 295 293 285 289 289 292 295 292 291 288 290 287 288 287 289 289 289 289 288 288 285 288 288 288 288 288 284 285 282 283 282 279 283 282 283 283 284 285 285 285 283 283 280 279 280 279 278 276 277 279 280 280 278 277 277 276 276 276 275 274 274 273 274 272 270 271 270 270 270 272 273 274 274 276 275 275 275 275 275 274 274 274 274 274 274
295 296 291 294 292 288 286 287 290 294 289 290 289 289 289 289 288 289 289 289 286 287 290 288 289 289 289 288 287 284 285 285 283 282 283 281 283 282 284 283 284 284 285 281 282 282 279 278 277 278 275 277 280 279 279 278 276 274 275 276 276 275 275 274 273 272 272 271 271 271 269 269 274 276 275 275 275 275 275 274 274 274 274 274 273 273 274 273
299 300 300 296 289 287 288 288 292 293 291 292 291 288 290 289 290 290 289 290 289 289 290 288 289 288 288 288 287 286 288 287 286 286 285 284 282 285 283 282 284 283 283 282 281 281 280 278 277 277 274 276 279 278 277 277 274 274 274 275 275 273 270 272 270 272 270 268 269 269 267 268 273 275 275 275 275 274 273 273 273 273 274 273 273 273 273 273
299 296 300 304 291 287 289 288 290 294 289 290 291 291 291 291 290 290 288 290 290 290 291 290 290 288 288 286 285 287 288 288 288 288 287 288 287 287 286 285 285 283 283 281 277 279 278 278 277 275 272 274 278 277 276 275 273 271 272 275 274 274 274 273 273 273 272 272 268 265 266 272 273 274 272 273 273 273 273 273 273 273 274 274 273 273 273 273
Wind_Speed
7 8 8 8 9 9 9 9 9 9 8 8 8 8 9 8 7 7 7 7 7 7 8 8 8 7 8 9 9 10 11 6 12 11 11 6 5 10 12 12 11 11 10 9 12 8 6 4 4 1 5 5 2 3 3 1 2 3 5 4 4 3 4 7 8 7 8 8 11 12 10 9 7 10 6 10 4 4 7 13 13 14 17 17 16 17 17 17
8 8 8 9 9 9 9 9 9 8 8 8 8 8 9 8 8 8 7 7 7 8 8 8 7 7 7 9 9 9 8 9 8 10 9 3 8 10 11 12 9 8 11 9 6 6 6 1 1 3 5 3 1 1 3 2 2 5 3 3 3 6 7 7 7 8 8 8 10 8 7 6 6 8 8 6 7 13 12 13 14 13 15 16 18 18 19 19
8 8 8 9 9 9 10 9 9 8 8 8 8 8 8 8 8 8 8 8 8 8 8 8 7 6 7 8 8 6 5 8 4 11 6 5 9 10 10 11 8 8 7 7 7 7 6 6 3 5 2 1 2 2 4 3 4 1 4 3 5 6 5 8 7 7 5 6 7 8 5 3 7 6 7 6 6 16 15 11 12 15 15 16 16 18 18 19
8 8 8 8 9 9 10 10 9 8 8 8 8 8 8 8 8 8 8 8 8 8 8 9 8 5 6 8 5 5 6 9 6 7 10 11 11 12 11 10 7 8 6 6 5 5 4 4 3 4 2 2 3 3 3 3 4 3 4 5 6 6 2 8 6 5 4 5 7 6 5 0 6 7 8 8 4 13 10 13 13 14 14 14 15 17 17 19
8 8 8 9 9 10 10 10 9 9 9 9 9 9 9 8 8 8 8 7 8 8 8 9 9 7 4 6 5 5 5 5 6 7 12 13 13 13 11 8 6 6 5 3 4 5 5 3 3 1 4 3 1 3 4 2 3 2 6 6 6 5 3 6 4 4 4 5 6 5 3 4 2 8 11 12 11 8 9 12 12 12 13 15 15 16 17 20
8 8 9 9 10 11 11 10 9 9 10 9 9 9 9 8 8 8 8 8 8 8 8 9 11 7 4 5 6 5 5 3 7 11 13 15 12 12 8 7 6 5 5 5 4 3 4 4 5 3 1 1 2 1 5 3 4 1 5 6 6 5 4 4 4 3 4 6 5 4 4 1 8 9 12 14 14 11 12 11 12 13 13 14 15 16 19 21
7 9 10 11 11 11 10 9 9 10 9 9 9 9 8 8 8 8 8 8 8 9 8 7 9 9 3 3 3 5 7 6 8 13 15 13 13 10 5 8 6 5 5 6 3 4 4 2 4 4 3 5 6 5 4 1 2 4 4 4 6 5 5 3 4 0 3 5 5 4 4 3 6 11 10 13 12 13 12 11 12 13 13 15 17 19 19 20
9 10 10 9 9 10 9 9 10 9 9 10 9 9 9 9 8 8 8 8 9 10 9 6 7 8 4 3 5 5 9 10 13 15 14 12 10 7 3 6 6 5 7 8 7 4 5 6 4 1 5 4 3 4 1 2 5 3 3 3 4 2 4 2 1 1 2 3 3 4 4 9 10 10 10 13 12 12 12 11 12 12 14 16 18 19 18 19
8 8 8 8 9 8 9 9 9 9 10 10 10 10 10 9 8 8 8 8 8 9 11 10 7 7 3 4 7 4 9 11 10 14 15 13 11 8 9 6 10 6 6 8 8 5 5 5 2 5 2 4 2 2 3 3 4 3 3 2 4 2 3 2 3 3 1 3 6 6 7 8 12 14 13 11 11 10 11 11 12 13 15 16 17 17 18 18
7 7 8 8 8 8 9 9 10 10 10 10 10 10 9 9 9 8 7 8 8 8 9 10 13 4 4 6 6 4 7 10 11 11 13 11 10 7 10 9 9 7 8 9 10 11 9 4 6 6 10 8 4 3 5 3 4 1 2 2 4 5 1 2 5 3 2 6 7 3 8 7 3 7 8 9 10 10 11 11 12 13 16 16 14 15 15 17
7 7 8 9 8 9 9 9 9 11 11 10 10 10 9 8 9 7 7 7 7 7 7 9 11 13 10 12 9 8 6 8 9 10 11 10 10 11 9 9 9 7 8 11 11 10 9 4 4 2 2 5 5 6 4 4 2 1 3 2 3 4 1 3 4 5 3 4 7 3 7 7 10 11 8 8 8 8 10 11 12 13 13 13 15 15 14 15
7 8 8 9 9 9 9 9 9 9 10 10 10 9 9 9 8 7 7 7 6 6 6 7 7 5 5 13 13 7 8 5 7 10 9 8 6 6 5 6 8 9 9 10 10 9 8 6 3 2 3 3 3 3 4 1 2 3 4 4 5 6 4 6 5 5 3 5 6 6 6 11 10 8 6 7 7 7 9 10 11 12 12 12 12 13 13 13
8 8 8 9 9 9 9 10 10 9 10 10 10 9 9 9 8 7 6 6 1 4 4 6 7 2 4 8 8 5 5 5 6 10 10 6 1 2 3 5 7 9 10 9 8 7 7 6 2 6 3 2 3 1 3 3 2 2 5 5 5 6 3 6 4 9 4 4 3 1 4 6 9 8 6 4 5 7 9 10 10 9 10 10 11 11 12 13
7 8 9 9 10 10 11 10 10 10 10 10 9 9 9 7 6 6 4 4 4 3 4 5 6 3 9 7 4 3 2 4 5 11 12 10 1 5 5 6 7 7 6 7 5 4 6 7 10 9 4 5 3 2 2 4 6 2 2 5 6 3 3 5 7 10 6 4 2 3 3 5 8 8 6 6 4 5 9 9 9 9 9 9 9 10 10 12
8 8 9 10 10 10 10 10 10 9 9 9 10 9 6 5 4 4 3 3 2 4 5 5 3 5 4 4 4 3 4 6 10 13 10 11 8 2 6 4 6 7 6 5 3 2 2 3 3 3 4 2 3 3 2 3 4 8 2 3 6 6 7 5 5 9 11 8 8 4 6 5 6 7 6 6 5 6 9 9 9 9 9 9 8 9 10 10
8 9 9 10 9 9 9 10 9 9 9 8 10 7 2 2 2 3 3 3 4 4 5 2 5 5 7 7 7 6 5 15 15 12 7 8 9 6 4 3 3 3 3 3 1 1 1 4 7 3 4 5 3 4 4 3 6 9 8 4 5 7 8 4 5 6 10 10 6 8 2 6 6 6 6 5 5 6 8 8 8 9 9 8 8 8 8 9
8 9 9 9 9 9 9 10 10 9 8 8 8 6 2 1 4 2 2 2 2 3 3 5 6 1 5 3 5 10 13 11 10 9 9 6 7 7 6 4 3 4 3 2 4 5 3 2 2 2 9 10 10 5 4 5 5 7 9 5 6 7 9 6 5 4 12 9 8 5 1 5 5 5 6 6 5 5 7 7 8 7 7 8 7 8 9 9
7 8 9 9 10 9 9 9 10 9 8 7 4 2 1 4 6 5 3 4 0 0 1 2 2 1 9 11 9 12 11 8 10 10 7 7 3 8 7 4 4 6 6 4 6 5 6 3 5 8 9 12 13 11 6 4 4 6 7 7 8 11 9 10 8 8 12 9 8 3 5 4 5 5 5 5 4 5 6 6 6 6 7 7 7 8 9 9
8 8 9 9 9 10 9 9 9 9 8 5 0 2 4 6 1 14 11 7 4 3 2 9 9 7 5 11 10 10 9 7 8 8 11 11 7 7 6 4 5 5 1 7 8 8 6 4 5 9 11 10 10 7 4 2 4 7 6 5 8 7 8 9 9 5 10 11 8 2 3 4 5 4 4 4 4 4 5 5 4 5 5 7 7 8 8 8
8 9 9 9 9 9 10 10 9 8 9 2 2 2 3 3 3 6 10 15 13 10 7 5 3 2 2 9 12 13 9 5 6 14 15 10 9 8 3 5 1 9 8 5 5 9 5 10 9 6 5 7 7 6 5 4 5 7 7 7 9 10 9 12 10 4 5 8 6 1 3 4 4 3 3 3 3 3 4 4 4 5 5 5 7 7 8 9
8 8 9 9 9 9 9 9 10 9 6 3 2 3 2 3 1 6 4 8 5 6 9 8 5 6 6 5 9 14 8 1 13 15 15 14 4 5 7 7 2 7 6 2 3 3 5 11 7 7 7 6 5 5 5 5 4 5 7 6 7 11 9 15 13 4 1 3 6 4 4 5 6 4 3 4 4 3 3 3 4 4 5 4 6 7 8 8
8 8 8 9 8 9 10 10 9 8 5 3 4 4 3 3 2 3 1 6 4 3 3 4 1 7 2 1 4 4 5 4 15 19 16 17 8 2 8 6 10 10 8 3 4 4 11 9 5 6 5 5 5 5 3 4 6 5 5 7 7 10 13 12 1 1 2 3 8 3 7 5 7 6 5 5 3 3 2 3 3 4 4 4 6 7 8 10
8 8 9 9 9 9 10 10 9 10 3 3 4 6 4 2 4 1 3 9 7 1 2 6 11 11 10 2 7 11 7 14 8 14 16 16 6 9 6 6 9 8 11 12 7 4 7 6 7 4 4 5 5 3 6 6 6 3 8 9 9 12 10 9 5 5 8 7 7 5 9 3 6 5 6 4 5 4 4 3 3 3 3 6 7 7 9 12
8 9 9 8 8 9 9 9 9 4 7 7 8 5 3 3 4 4 3 3 4 3 4 3 4 10 9 8 6 7 12 7 7 14 13 10 7 4 2 6 7 8 8 9 12 9 7 4 5 4 4 5 6 3 10 8 3 4 7 7 8 13 12 9 12 14 17 6 3 9 9 7 8 8 7 7 6 5 5 4 2 2 3 4 5 8 9 12
9 9 9 8 9 9 8 8 2 3 3 4 5 3 3 3 3 4 3 2 1 6 3 3 3 6 5 5 5 4 3 4 10 6 7 10 8 3 3 2 3 5 4 4 1 7 6 3 3 5 4 3 5 4 8 8 5 2 7 9 12 14 15 15 13 12 9 1 7 4 5 7 9 12 10 9 7 7 5 2 2 2 4 6 8 8 10 11
9 9 8 9 10 10 6 1 3 1 0 4 3 2 1 1 2 2 2 2 3 8 2 9 3 9 3 10 10 2 4 4 2 7 4 5 3 2 3 3 4 4 2 3 6 4 4 1 1 5 5 5 4 4 5 7 5 6 5 11 12 13 13 15 12 7 7 8 1 3 6 10 2 11 11 10 9 8 5 4 2 3 6 6 8 9 10 13
8 8 8 9 10 8 2 2 1 1 2 3 3 1 1 1 1 2 3 3 2 5 6 6 6 5 5 9 13 5 1 4 5 6 10 8 6 1 4 3 2 3 2 2 3 4 3 2 5 4 5 6 7 6 6 5 4 3 8 13 12 12 13 13 7 5 8 8 7 2 2 11 11 1 9 10 9 6 6 2 1 4 7 9 11 11 12 13
7 7 7 8 10 8 3 4 2 1 3 2 1 1 2 2 2 3 2 1 3 7 5 5 3 5 6 8 11 9 3 9 2 10 10 8 6 1 5 5 5 3 1 2 1 3 4 4 6 8 8 7 6 6 7 3 3 7 12 13 15 13 13 13 6 7 8 4 2 7 7 10 8 5 9 9 7 9 4 2 2 6 10 12 12 12 13 17
7 6 6 6 7 5 3 2 2 3 3 2 2 1 0 1 3 3 3 1 2 2 5 3 3 2 11 10 8 7 1 8 5 7 12 2 8 3 3 5 2 2 1 3 5 1 3 3 3 4 6 7 7 6 4 4 5 7 14 15 14 13 11 10 6 7 5 2 5 4 11 10 11 13 2 8 5 4 1 3 4 8 12 12 12 15 17 19
5 5 5 5 4 2 1 3 4 2 2 2 1 2 1 3 3 2 1 2 4 2 4 4 5 7 12 5 6 12 12 8 4 9 5 5 8 6 5 2 3 4 2 7 8 4 3 2 2 2 4 4 7 7 4 8 9 13 15 14 13 7 8 6 7 6 6 5 6 9 10 8 11 11 6 2 1 2 2 3 6 10 12 14 14 17 18 17
8 8 6 5 2 2 2 1 3 2 2 1 2 3 3 3 2 0 2 1 3 3 2 3 5 5 9 10 4 11 5 7 9 10 7 5 8 9 7 3 4 4 3 4 3 4 3 3 3 2 2 6 7 7 6 6 9 9 9 13 13 5 5 5 3 4 5 7 8 12 14 11 11 9 5 4 3 3 2 5 10 13 13 14 14 15 17 18
13 15 14 9 0 3 3 2 3 1 1 2 2 2 3 1 4 5 2 2 4 4 4 5 1 4 7 2 4 9 7 5 8 8 8 7 9 12 12 7 6 3 2 8 3 5 5 4 2 5 3 4 6 10 5 5 7 6 12 11 11 9 7 5 7 8 8 10 9 16 18 12 8 6 6 6 4 2 0 4 7 9 12 13 15 18 17 19
4 8 13 10 2 6 4 2 1 0 1 3 2 2 2 0 3 1 1 5 0 2 2 2 5 8 6 6 6 7 1 5 8 6 5 3 4 7 7 11 7 3 3 5 7 7 3 1 3 4 1 2 6 6 8 3 7 8 11 10 10 10 9 9 9 7 10 12 13 14 13 10 13 5 3 3 3 3 2 4 7 10 14 16 19 20 21 20
7 3 5 2 7 5 1 1 0 1 2 3 3 2 2 4 1 2 1 3 2 1 3 2 6 5 4 5 4 6 1 3 5 6 8 2 5 5 4 9 11 7 1 4 5 5 3 2 3 4 4 4 3 5 5 5 6 7 4 9 6 5 4 8 8 12 13 15 19 16 7 5 15 4 1 5 5 4 3 7 10 13 17 20 23 24 24 25
2 5 5 3 2 4 4 1 2 1 3 3 2 0 4 2 1 1 1 1 1 2 2 2 4 3 2 3 1 2 2 0 3 3 6 5 4 4 6 6 9 8 3 3 2 2 3 5 3 3 2 3 4 1 2 5 5 4 4 4 6 5 5 7 8 11 12 15 14 7 5 7 10 6 5 3 4 7 9 13 16 18 19 22 21 23 24 25
3 1 1 4 4 6 3 1 1 2 2 3 2 7 4 0 2 2 1 3 2 3 4 3 4 3 2 2 2 1 3 1 2 2 1 4 3 4 2 4 6 9 4 3 2 3 7 0 3 4 2 4 4 1 2 4 4 8 5 7 9 7 6 8 11 10 14 10 10 8 10 11 13 3 5 4 6 13 16 20 24 20 20 20 21 21 23 26
2 2 4 5 6 7 4 0 2 2 3 2 4 3 0 2 3 3 4 3 3 4 2 2 2 3 2 2 2 2 1 2 1 2 1 2 3 5 4 2 3 4 4 4 0 1 3 9 5 1 2 3 1 2 5 4 1 3 3 7 13 5 3 2 9 10 9 11 13 10 14 16 12 10 5 7 16 18 20 24 18 20 18 22 23 26 28 27
1 2 2 6 8 6 4 2 3 4 1 9 6 6 1 1 4 4 2 1 1 2 2 3 1 2 1 2 1 3 4 2 7 3 2 3 2 3 2 3 2 4 4 1 3 1 2 6 2 5 3 5 1 2 5 5 8 7 4 3 6 3 3 4 6 9 12 11 11 14 15 13 11 10 9 16 18 22 25 26 20 21 20 23 25 29 30 29
1 2 2 6 8 5 3 2 4 3 3 8 2 3 2 5 2 3 3 3 1 2 2 4 2 1 2 2 3 1 3 3 4 4 4 4 3 5 4 4 1 2 2 3 3 4 3 2 2 5 6 3 5 4 5 4 8 9 6 4 4 3 3 8 4 5 7 14 14 16 14 11 7 8 13 15 18 23 28 27 16 18 23 26 28 28 26 26
1 1 3 2 7 5 4 3 1 5 6 6 1 4 2 4 4 4 3 3 2 3 3 2 2 1 0 1 1 3 1 2 3 2 4 4 2 4 4 3 4 7 5 3 4 3 2 2 5 5 12 6 2 3 5 5 4 2 5 4 5 2 2 7 5 4 6 11 11 15 17 10 11 13 12 14 21 22 24 21 21 23 27 30 29 27 28 27
1 1 2 2 8 5 4 3 10 6 5 4 9 5 2 3 2 2 3 2 1 1 1 2 3 2 4 2 0 1 2 2 3 2 4 2 6 0 4 4 4 5 6 4 6 1 3 4 6 11 9 7 3 3 3 6 5 2 3 3 4 5 7 8 8 4 1 7 12 13 17 15 13 7 10 16 20 22 23 24 23 26 28 27 29 32 29 27
2 1 3 8 8 6 3 8 4 3 3 3 2 3 3 3 1 3 1 2 2 1 2 1 1 2 2 2 3 2 3 2 2 2 3 3 4 5 2 2 3 3 4 3 3 3 2 4 5 7 9 6 3 3 3 5 6 5 3 1 1 2 4 3 10 10 8 8 12 13 16 18 6 3 9 17 21 23 22 22 27 28 27 28 30 30 29 27
4 4 1 7 7 4 5 8 5 5 5 2 3 3 1 2 3 0 0 2 1 1 2 1 3 1 3 2 2 1 2 2 2 2 3 2 2 3 1 3 2 4 4 2 3 3 1 2 6 7 7 7 5 5 7 6 6 6 4 4 3 3 1 3 5 8 10 12 10 12 14 15 11 12 17 20 23 22 19 19 22 23 26 27 29 31 31 28
2 3 3 5 5 2 2 4 3 3 3 2 3 4 2 2 2 1 1 2 2 0 2 2 3 2 1 1 2 1 2 1 2 2 2 0 1 2 1 2 2 2 5 3 2 6 3 2 5 8 7 3 3 4 5 4 3 2 3 3 2 3 2 4 4 3 6 9 11 12 20 16 15 17 21 22 23 23 23 26 27 28 25 25 28 29 28 29
3 2 3 7 11 6 4 3 6 5 2 3 2 3 1 2 3 3 2 2 1 1 1 1 2 1 1 1 1 1 1 2 1 2 0 0 0 3 3 2 2 2 3 3 2 4 3 4 4 6 9 11 11 11 10 10 10 8 8 5 4 3 4 3 6 7 11 9 16 12 17 20 25 28 28 25 24 22 23 28 26 24 25 26 28 30 29 28
1 3 3 6 8 8 7 2 5 8 6 3 3 0 1 3 1 1 3 3 1 0 2 1 2 2 2 2 3 4 3 3 3 0 1 1 1 2 2 3 3 1 2 2 4 3 2 2 1 2 2 7 10 11 13 12 12 9 10 4 3 4 1 2 5 9 12 16 15 15 15 25 32 31 29 28 23 24 28 26 27 27 27 29 31 29 28 27
1 3 2 2 2 10 5 5 4 0 3 2 1 1 1 2 2 2 1 1 2 2 1 1 1 2 1 3 3 3 2 2 2 1 2 3 0 1 4 2 3 3 2 2 4 2 2 3 1 3 4 10 14 15 14 12 13 15 11 7 5 3 4 3 5 10 12 13 17 12 21 23 28 29 29 28 26 26 27 28 29 26 26 26 28 30 31 29
2 1 0 2 1 2 2 2 4 4 3 2 2 1 1 2 1 0 1 1 1 2 2 3 1 2 2 4 4 2 4 4 3 2 1 2 2 2 2 4 2 4 5 1 2 2 2 3 2 1 9 9 14 14 13 11 11 11 10 9 6 3 5 7 11 10 10 10 17 27 28 27 26 26 27 26 27 31 32 27 25 27 27 29 31 31 30 30
4 5 3 3 0 2 3 2 3 5 6 4 2 0 1 0 1 2 2 1 1 1 1 1 1 2 1 2 3 3 5 4 1 1 2 0 2 1 2 2 3 2 2 0 1 2 2 1 2 1 10 14 13 10 7 10 10 9 7 7 3 4 6 9 14 12 13 16 20 23 26 28 24 22 24 26 29 29 25 25 25 26 26 29 32 31 31 30
3 3 2 4 8 4 2 1 1 2 3 2 1 2 2 1 1 2 1 1 0 1 1 3 3 1 1 2 3 2 3 4 3 3 1 1 1 2 2 1 1 2 1 1 2 1 3 1 3 2 5 9 4 5 6 10 9 9 4 4 3 4 8 9 11 14 15 17 18 22 26 24 16 18 23 26 26 26 28 29 29 28 30 33 31 31 29 29
3 3 4 7 4 2 1 1 1 1 2 1 1 1 1 0 1 1 1 1 1 2 3 3 3 1 0 3 2 4 4 5 6 5 1 2 3 3 2 1 4 0 1 1 2 3 1 2 3 1 6 6 2 12 15 9 2 3 4 5 4 6 7 7 8 12 13 19 24 23 19 15 15 20 24 26 28 31 31 32 30 28 31 29 28 28 28 28
2 1 1 1 3 1 2 0 1 2 1 2 2 2 1 2 2 1 2 2 1 1 2 2 3 4 2 2 3 3 5 5 4 3 3 2 2 3 4 4 4 2 1 2 0 1 2 4 4 4 6 6 9 10 18 4 3 4 6 5 3 6 9 13 14 14 14 18 17 15 16 17 21 22 27 29 30 34 33 27 29 32 29 26 26 28 29 29
Wind_Direction
345 341 343 345 348 347 343 339 334 330 330 330 330 340 347 346 344 350 348 345 340 343 342 337 338 341 328 320 319 315 328 281 65 45 52 50 359 310 307 310 307 312 316 302 287 263 256 241 223 174 226 221 94 229 103 184 339 249 229 265 266 358 354 24 6 359 349 320 347 341 4 349 336 354 9 320 195 223 12 30 13 30 33 29 21 21 18 20
345 342 344 346 348 344 340 333 326 328 327 330 340 346 344 339 341 345 340 339 344 338 335 329 329 334 337 311 312 325 319 283 57 53 53 17 328 319 314 312 311 315 304 291 326 338 309 161 333 230 220 177 165 90 214 111 273 267 280 267 352 31 47 12 13 18 354 348 327 339 11 351 14 328 357 335 9 35 28 28 27 33 36 32 31 29 33 35
345 342 345 347 344 342 335 326 325 325 329 338 345 346 340 340 341 342 339 342 341 340 327 321 321 328 317 310 312 332 298 244 56 31 49 25 346 328 323 316 312 309 300 313 329 322 338 348 333 251 217 164 243 121 241 76 285 101 298 296 65 31 47 40 27 21 5 332 331 336 354 347 26 5 324 343 26 46 40 17 26 33 34 35 34 38 40 42
343 343 345 343 342 340 332 324 324 327 337 345 346 340 340 337 341 341 338 341 339 334 326 315 316 314 307 298 320 292 245 268 35 353 24 4 343 329 325 313 307 295 287 269 300 298 297 275 262 256 157 263 127 207 193 64 275 86 275 16 37 15 349 39 42 20 4 351 328 323 312 237 41 17 8 350 103 54 51 39 35 38 40 41 42 42 42 44
341 342 342 342 344 338 328 324 322 332 346 345 342 339 341 339 337 338 339 338 336 327 321 312 303 312 306 279 303 240 230 248 47 339 12 350 334 322 320 309 290 297 295 304 266 256 263 273 234 61 252 113 137 138 58 65 6 340 45 45 23 10 50 37 35 35 357 304 296 331 8 39 147 44 41 47 71 57 43 51 53 54 47 46 44 43 44 45
342 340 344 345 345 335 320 320 325 343 345 344 340 338 338 339 337 333 334 333 326 323 314 306 303 315 307 274 246 206 226 7 347 1 351 339 324 313 311 278 283 283 284 269 284 283 251 209 214 188 181 136 42 343 61 3 353 202 95 70 53 37 41 23 20 47 311 345 6 1 64 113 85 76 62 64 71 77 72 73 68 58 53 53 52 48 46 45
339 346 349 349 340 316 315 320 341 346 342 341 340 339 334 335 338 330 331 329 320 314 315 301 297 310 347 264 224 237 59 80 354 347 349 331 320 308 297 260 236 262 263 290 304 286 341 259 243 69 115 107 61 62 38 21 178 325 102 97 80 45 46 31 33 198 278 343 15 32 260 113 96 77 75 78 82 85 83 79 72 65 62 55 53 49 48 46
353 353 346 333 309 310 319 335 347 340 337 339 338 338 336 336 335 333 326 324 319 310 309 297 295 304 312 222 255 112 42 10 346 342 342 339 324 332 213 256 321 316 20 24 353 4 342 21 58 278 41 17 48 39 357 228 30 102 127 139 126 28 51 63 67 206 251 304 313 268 113 79 82 89 88 76 86 94 92 82 74 71 63 56 53 49 48 47
349 342 324 310 313 319 334 342 339 339 339 339 339 333 330 336 332 324 324 319 314 315 316 320 319 297 215 277 262 3 27 349 345 340 350 343 341 314 349 5 351 351 29 27 18 13 284 53 356 334 85 107 331 84 51 298 112 22 78 168 149 66 53 33 163 110 204 350 334 134 105 114 103 97 74 80 89 91 92 83 75 68 61 57 53 50 49 46
338 331 321 321 325 335 342 343 341 343 343 336 333 331 326 328 325 323 313 310 310 313 316 322 326 301 243 238 250 67 30 331 352 354 354 348 357 17 23 2 355 352 34 34 36 26 35 28 43 68 97 70 38 52 296 311 63 332 126 175 171 87 90 90 39 72 147 13 350 81 99 111 154 241 90 81 91 97 87 78 71 65 61 58 56 52 49 46
335 332 334 336 335 341 344 342 343 343 342 334 328 326 319 321 321 312 309 309 310 315 318 327 333 328 46 29 68 66 358 334 359 359 356 1 20 26 10 346 340 3 37 43 36 20 14 17 347 359 279 108 96 58 33 57 329 112 194 170 230 188 270 47 73 48 214 37 348 357 104 88 65 59 75 89 94 94 85 76 68 63 61 59 57 55 49 48
343 342 334 335 339 343 343 343 340 337 337 329 323 319 321 317 313 307 305 309 305 309 319 323 331 300 45 52 53 27 342 351 343 1 1 10 26 16 358 340 356 19 36 45 36 24 12 10 300 354 101 235 98 184 92 156 265 114 175 201 176 193 225 44 37 16 321 66 350 329 143 75 53 66 75 94 101 92 85 77 69 63 59 57 57 54 50 46
347 338 335 340 343 342 343 342 336 333 329 323 320 316 318 319 312 305 298 289 222 304 314 321 307 238 284 52 44 19 358 358 358 4 5 358 309 39 11 14 30 38 39 60 44 18 8 360 215 102 40 294 46 23 71 219 191 280 215 302 177 192 182 52 28 359 208 79 352 77 240 78 67 61 61 80 110 99 82 71 64 63 60 56 54 53 54 46
343 340 339 340 346 344 343 336 329 326 322 319 321 324 321 312 311 311 287 275 339 312 299 313 300 298 71 80 87 53 325 341 341 14 7 347 39 63 72 51 49 54 53 70 55 3 12 19 59 87 37 23 93 313 220 179 190 293 30 269 15 320 60 85 29 6 40 104 268 151 272 110 75 61 55 62 67 87 80 69 65 61 58 58 50 50 49 47
346 340 340 344 345 339 336 330 326 319 317 315 323 324 313 315 331 349 351 207 341 301 281 284 261 278 48 104 183 123 236 240 11 12 11 359 354 134 28 26 60 58 57 53 82 7 308 277 240 71 65 60 144 256 229 127 75 14 224 26 18 2 348 69 47 45 15 336 328 293 253 98 69 62 48 62 73 83 82 74 68 60 59 52 46 45 41 40
342 339 341 343 335 330 323 324 322 319 316 321 318 309 322 333 346 15 24 352 269 262 238 275 357 353 71 58 18 170 3 18 2 355 11 359 3 27 360 55 68 75 58 70 222 246 72 23 58 359 60 191 293 332 319 53 25 29 14 13 5 349 340 310 84 48 16 339 342 354 41 159 94 68 54 52 77 79 81 76 68 63 54 45 46 37 36 31
340 340 341 336 330 326 322 320 320 318 318 314 303 275 327 202 207 219 187 242 252 252 16 24 327 13 49 5 253 1 2 2 347 356 356 18 351 357 301 271 282 293 218 247 203 211 329 257 192 209 42 33 0 350 246 34 8 12 3 2 352 352 335 338 1 99 7 1 328 47 64 65 83 80 69 61 63 77 79 76 70 66 52 50 42 38 30 28
340 336 336 330 325 325 321 317 316 317 311 307 277 282 311 8 251 221 243 220 140 295 130 38 37 194 118 35 8 342 336 338 353 319 356 2 323 342 354 327 312 286 271 213 27 12 348 43 357 55 34 29 23 19 46 34 6 353 352 358 347 333 347 340 336 4 349 347 312 95 100 123 112 105 79 68 68 77 78 73 71 56 50 47 41 34 27 25
338 334 329 326 324 323 322 316 315 318 322 318 171 9 280 293 324 55 29 4 66 42 42 4 4 50 23 344 348 339 327 332 283 342 12 3 329 296 283 275 272 289 94 64 31 21 5 72 39 37 28 13 19 20 31 37 328 349 333 327 309 320 324 332 349 55 13 330 318 256 271 137 142 132 113 90 76 86 82 82 69 52 52 40 36 27 21 18
335 329 325 329 324 321 319 317 323 337 343 241 181 189 206 183 92 46 18 45 56 64 73 5 11 97 44 10 356 334 277 264 349 23 12 0 321 317 322 348 12 54 45 48 18 36 336 56 39 29 358 349 5 4 339 303 305 299 297 305 326 316 315 329 335 76 24 326 290 118 158 164 159 150 140 121 120 111 93 80 59 59 40 38 25 22 15 9
330 327 327 324 323 320 320 324 337 340 327 299 260 248 304 29 33 81 60 70 69 38 59 53 46 43 27 324 351 358 6 36 37 22 15 326 251 290 11 329 67 52 41 346 21 46 32 59 37 17 351 334 333 343 330 285 244 280 308 339 334 340 328 321 310 80 66 13 286 187 185 189 168 156 163 162 169 119 97 71 66 54 39 27 20 14 6 5
325 325 324 324 322 326 328 336 332 323 276 280 52 82 67 38 351 19 281 89 68 18 50 45 353 45 139 336 13 346 258 318 23 10 359 353 24 309 353 32 50 52 15 195 205 68 46 48 19 3 344 317 279 292 314 291 283 255 339 351 338 342 326 302 231 99 190 277 282 177 261 202 178 171 166 177 159 120 83 69 73 39 28 16 12 3 357 351
327 324 326 324 330 331 335 323 331 320 357 22 61 79 63 5 332 324 274 117 82 285 44 40 35 26 25 97 16 319 42 36 349 11 358 341 35 46 342 50 52 52 47 34 46 54 66 43 13 335 308 303 276 272 308 262 240 312 13 359 347 329 335 322 309 194 283 286 271 309 285 220 165 169 182 177 166 147 125 135 89 38 24 9 4 0 350 349
334 333 324 320 325 334 322 321 292 324 40 53 63 50 35 346 324 307 268 51 101 77 59 47 30 29 27 360 15 342 49 35 6 354 359 353 25 293 321 6 56 57 54 49 68 67 74 38 350 315 276 290 321 344 8 345 318 117 32 360 326 325 311 288 297 306 293 271 292 254 266 222 184 194 194 181 169 171 167 162 137 106 15 10 346 354 352 346
336 329 323 320 331 331 320 310 17 56 265 69 69 79 39 9 311 17 288 162 95 51 157 163 223 59 355 214 331 288 83 106 41 4 347 4 347 273 56 209 290 58 51 329 165 93 78 52 338 296 302 321 326 18 26 341 319 51 95 355 310 301 304 296 293 312 306 266 173 266 308 332 180 202 194 164 177 183 177 197 149 359 6 357 345 344 342 342
330 326 323 329 328 328 304 310 84 223 254 55 37 72 47 328 346 312 283 254 76 358 310 25 285 24 293 354 346 39 284 61 332 6 348 7 255 349 210 71 344 93 61 33 52 58 35 76 279 326 327 300 328 47 39 338 326 295 355 327 299 295 290 291 301 313 318 323 72 171 315 318 282 198 189 171 184 175 176 177 326 353 352 344 341 338 338 341
321 320 326 328 327 324 263 78 28 215 256 107 85 358 339 265 350 272 263 210 64 5 359 349 322 49 334 354 342 204 305 30 330 23 15 24 8 182 345 38 177 78 62 13 229 82 328 29 333 320 327 8 15 5 29 18 309 314 351 317 299 293 291 289 299 270 267 296 283 248 291 323 323 316 170 164 178 175 182 268 349 1 356 352 344 349 346 338
311 308 320 334 331 347 41 133 197 48 35 45 359 15 311 276 221 263 259 350 19 324 358 344 26 319 344 317 20 63 105 291 282 26 16 340 310 258 63 42 44 6 44 251 26 44 34 354 10 0 354 24 12 343 318 302 284 302 319 310 295 285 280 282 271 275 294 309 262 176 23 318 317 359 136 157 199 193 210 317 323 355 355 355 355 348 340 339
312 306 312 317 322 314 338 47 42 96 52 27 345 296 281 246 248 272 269 82 43 7 178 41 154 336 350 315 38 29 7 16 23 343 336 241 54 294 38 30 348 6 187 284 69 123 59 15 9 313 354 6 332 312 275 246 289 321 307 293 271 259 259 255 270 269 300 280 303 19 2 328 303 309 227 168 237 226 76 322 350 348 353 353 345 339 339 338
348 335 303 296 282 230 74 82 55 55 20 18 302 257 234 236 224 225 212 30 339 12 21 313 353 310 319 326 52 15 25 19 32 320 4 34 17 61 92 350 308 335 101 73 99 67 108 89 345 314 31 318 293 298 258 226 249 287 293 301 313 253 226 226 243 260 285 276 346 16 359 347 306 305 349 310 90 79 333 328 348 350 349 347 344 344 340 333
31 26 7 283 346 37 302 143 93 55 31 322 273 250 238 236 300 311 60 33 321 23 244 21 1 321 5 26 14 1 22 20 0 356 19 7 31 31 14 182 286 257 250 170 130 155 165 175 192 109 226 299 246 282 192 243 258 288 329 338 327 341 310 246 287 291 298 309 344 352 339 331 291 303 83 89 139 144 60 353 347 342 340 340 341 336 334 335
54 54 44 55 303 284 342 52 39 17 325 277 232 235 249 198 51 48 98 114 256 11 2 337 13 357 351 301 27 2 354 334 19 13 11 12 27 27 25 25 353 331 141 28 353 155 173 101 82 142 212 345 337 308 143 210 267 349 348 349 354 342 342 343 341 335 332 317 338 335 340 318 270 350 98 125 143 143 351 345 330 337 339 341 339 335 335 338
52 68 62 53 25 46 53 33 264 313 235 238 246 245 265 103 61 11 268 350 151 326 85 182 306 332 320 284 38 345 249 14 331 22 322 358 19 86 63 50 358 353 331 359 321 338 110 98 146 142 138 38 326 337 355 332 354 5 5 357 360 351 355 329 329 316 307 303 318 318 335 275 298 346 89 122 114 29 49 303 329 349 342 341 338 341 341 332
35 272 65 47 77 86 73 171 300 223 226 210 260 227 40 63 83 115 265 315 339 123 311 319 323 277 320 41 2 341 244 135 339 350 350 11 34 47 87 53 28 358 293 301 345 345 310 191 103 357 5 10 347 25 348 310 331 23 12 12 359 345 335 312 320 327 312 304 310 313 294 347 315 45 28 77 50 343 1 334 342 345 342 343 344 340 331 329
16 63 123 154 144 80 59 112 169 216 272 268 235 266 76 79 204 231 219 231 87 328 303 107 312 285 167 132 125 70 349 319 46 317 28 10 29 29 3 1 10 2 282 273 73 244 261 265 77 70 58 335 35 67 262 311 237 73 2 6 355 349 327 279 307 299 308 309 305 317 315 322 318 78 79 72 344 328 341 338 335 333 337 339 336 334 331 330
263 122 222 56 19 1 23 23 176 186 287 267 97 50 55 81 147 208 44 16 20 328 335 269 265 266 334 138 138 4 157 296 21 317 107 55 35 26 14 17 5 1 3 352 5 334 318 137 124 100 25 41 52 306 15 291 351 335 342 1 334 326 262 264 282 290 301 289 285 328 304 305 312 174 116 144 347 334 331 324 329 337 335 340 337 335 332 331
357 299 45 358 11 343 326 198 230 231 246 267 83 82 98 208 357 18 40 10 23 332 274 271 53 342 9 334 35 14 37 281 243 293 76 179 133 38 19 67 344 347 25 331 6 77 316 298 306 98 68 100 13 49 50 33 275 317 4 360 304 209 231 279 315 310 309 307 297 315 316 309 318 324 146 331 350 340 329 329 337 332 339 335 335 331 332 330
335 61 154 39 334 325 303 265 259 239 192 77 60 98 187 90 71 30 35 23 201 182 292 320 84 310 12 316 27 351 348 307 16 304 6 7 38 319 360 350 99 6 343 26 309 61 316 301 162 139 357 129 184 178 114 64 29 74 44 12 344 4 315 325 317 318 321 305 305 304 308 293 297 302 353 337 334 335 335 333 333 335 336 335 332 331 331 329
337 244 36 2 329 328 295 270 252 275 102 76 128 126 77 46 66 48 30 8 323 289 303 49 339 61 325 315 347 179 353 9 337 10 309 41 301 38 34 321 36 68 321 331 271 358 258 280 322 166 322 117 181 214 337 24 99 118 159 58 31 292 335 323 333 300 297 303 320 307 311 299 306 334 332 325 329 336 333 330 333 333 332 332 331 330 328 328
254 215 51 6 328 334 312 271 224 48 56 86 103 56 16 95 80 72 58 333 46 320 27 0 52 314 60 13 11 336 28 329 333 343 320 32 343 44 40 17 346 327 344 274 298 339 300 255 275 331 321 275 246 27 342 341 333 321 2 22 7 3 277 259 246 207 308 314 303 312 306 293 305 322 322 324 338 338 336 336 330 327 327 327 329 330 330 329
239 296 91 12 349 339 292 37 43 29 65 65 57 88 26 72 112 95 85 5 317 117 324 359 345 355 5 308 116 57 313 316 315 328 353 58 15 305 70 14 345 322 327 252 226 349 291 239 285 310 326 347 72 43 17 8 6 55 1 39 358 350 345 347 334 107 53 304 302 308 289 287 296 312 329 334 336 333 334 332 329 329 329 330 329 331 328 324
259 86 8 355 350 337 281 59 38 356 58 57 54 357 100 322 126 99 138 119 264 352 163 278 109 324 1 357 354 350 319 302 338 301 60 335 54 11 71 11 323 298 317 337 10 58 317 302 290 295 304 314 104 95 36 57 85 73 37 86 97 83 342 320 318 319 319 284 294 282 291 281 307 93 340 334 330 331 331 330 329 326 326 327 329 327 325 324
29 75 83 335 351 358 40 71 52 49 66 72 233 86 16 72 61 214 289 177 238 221 240 241 15 301 83 346 356 324 346 277 342 340 32 341 88 59 67 332 309 264 233 289 191 114 269 270 296 292 306 111 94 101 128 137 130 106 97 107 80 7 339 286 270 312 297 299 301 310 285 282 307 326 324 325 328 328 333 340 334 328 324 325 325 325 323 324
93 63 45 39 2 87 339 95 98 80 93 96 91 89 21 41 20 131 68 67 335 6 324 32 178 25 341 334 279 322 22 275 147 290 163 17 166 133 152 258 275 345 334 55 307 28 297 59 323 321 333 320 172 172 182 196 229 299 123 107 90 136 198 237 257 198 274 298 305 307 296 291 303 317 316 324 327 330 331 334 332 329 324 324 325 326 326 325
118 175 76 29 22 27 79 357 120 117 130 122 124 87 109 130 40 17 349 51 33 358 265 110 31 313 239 303 242 221 228 295 276 116 258 41 90 153 155 194 254 293 54 21 309 319 269 319 353 1 345 332 332 332 331 326 322 326 128 132 139 126 27 328 308 308 290 303 310 291 282 288 305 312 317 325 331 330 332 331 329 326 325 325 324 326 326 325
329 82 353 32 18 58 76 8 67 120 129 145 91 73 296 114 139 106 304 89 358 105 322 13 181 254 250 227 234 230 217 177 245 349 235 191 132 167 144 175 229 320 61 305 298 286 292 291 298 44 310 291 292 298 303 312 303 301 301 134 143 101 160 270 286 290 300 309 295 275 282 305 307 314 318 324 331 331 330 331 331 329 327 325 325 324 323 325
27 66 359 97 78 47 69 29 70 71 116 286 115 131 87 50 108 130 332 255 107 305 273 327 326 273 29 271 305 267 237 238 175 311 262 293 46 38 148 205 216 220 195 235 206 229 250 247 122 19 261 264 279 285 293 300 291 296 308 316 131 155 167 211 247 283 305 306 295 290 308 307 305 311 315 321 330 332 331 332 329 327 326 325 320 319 322 325
65 155 68 338 324 123 127 66 20 72 48 1 88 22 78 127 130 132 142 72 170 196 275 166 270 67 348 353 315 297 330 289 188 254 71 275 295 174 206 189 223 141 195 175 175 349 325 295 107 34 282 279 276 275 275 280 289 296 299 307 276 180 185 248 258 273 292 292 292 304 310 306 305 309 315 323 330 328 328 329 329 328 324 320 322 321 324 326
49 105 71 303 103 30 10 6 346 93 70 53 107 357 74 232 151 31 0 134 213 167 226 306 57 32 6 304 309 323 341 318 254 146 232 317 252 263 224 183 173 157 214 179 78 96 276 232 56 238 288 288 281 267 273 283 291 287 281 273 241 198 260 283 290 290 284 277 280 293 302 301 303 309 319 325 324 323 325 328 327 326 325 324 323 323 324 328
162 163 113 49 89 82 22 326 341 268 66 284 78 50 4 264 97 150 175 273 249 121 185 290 359 12 282 317 312 324 328 286 307 300 75 98 253 204 279 353 48 149 336 9 339 80 339 22 93 314 283 292 269 247 263 282 302 289 264 191 214 267 285 282 294 300 300 285 291 301 303 300 310 320 320 319 319 324 326 328 328 327 328 328 325 325 326 328
78 356 132 133 92 29 278 355 277 333 115 43 44 136 244 26 72 45 68 305 332 3 10 357 355 260 224 274 296 289 341 318 313 304 227 188 306 32 311 41 356 262 136 107 41 331 297 308 139 255 311 309 27 334 318 330 24 282 203 204 247 294 303 311 305 305 308 305 308 306 300 300 312 325 317 317 321 325 326 329 329 327 324 321 322 325 327 327
80 104 280 96 88 358 11 161 241 259 92 28 22 96 339 95 47 302 184 156 248 345 6 347 351 298 194 239 286 357 354 342 346 23 11 350 29 50 48 37 19 350 334 82 357 318 338 308 319 350 309 293 330 336 320 10 140 159 210 218 265 293 319 319 306 303 302 305 301 306 299 311 324 325 323 324 327 326 327 327 326 321 319 322 325 328 329 328